Content
SEND FEEDBACK

Daily
Averages
Monthly
Summary
United Kingdom

COUNTY OAK, ENGLAND


Home > Europe > United Kingdom > England
Elevation: 203 feet     Latitude: 51 01N     Longitude: 000 10W

WEATHER
 
SELECT A DAY
Number of Records: 298,576;   Date Range: 7/1/96 - 11/21/14
 
SHARE

PRINT THIS DATA

[ ← Previous Day ]
WEATHER ALMANAC - FEBRUARY 13, 2013
[ Next Day → ]
[ °C ]   °F
Weather ElementAverageHighLow
Temperature34.6 °F39.2 °F (10:50 pm)32 °F (1:50 am)
Dewpoint28.2 °F37.4 °F (11:20 pm)23 °F (8:50 am)
Humidity78 %93 % (10:20 pm)65 % (8:50 am)
Barometer30.15 in30.21 in (8:20 am)30.01 in (11:50 pm)
Wind Speed8.3 mph15 mph (9:20 am)
Weather ElementAverage
Visibility3.9 mi
Wind DirectionESE (126.2 °)

Weather ElementTotal
Precipitation---
Heating Degree Days29.4 (Base 65)
Averaged from 47 records on February 13, 2013
WEATHER CONDITIONS BREAKOUT
WIND DIRECTION BREAKOUT
WEATHER BY HOUR - FEBRUARY 13, 2013
[ °C ]   °F
Local TimeTemperatureDewpointHumidityBarometerVisibilityWind DirectionWind SpeedGust SpeedPrecipitationEventsConditions
12:50 AM33.8 °F26.6 °F75 %30.12 in4.3 miNNE (30°)3.5 mphMostly Cloudy
1:20 AM33.8 °F26.6 °F75 %30.12 in4.3 miENE (70°)2.3 mphMostly Cloudy
1:50 AM32.0 °F26.6 °F80 %30.15 in4.3 miEast (90°)2.3 mphOvercast
2:20 AM32.0 °F26.6 °F80 %30.15 in4.3 miVariable3.5 mphOvercast
2:50 AM32.0 °F28.4 °F87 %30.15 in4.3 miEast (80°)4.6 mphOvercast
3:20 AM32.0 °F28.4 °F87 %30.15 in5.0 miVariable3.5 mphOvercast
3:50 AM32.0 °F28.4 °F87 %30.15 in5.0 miEast (80°)5.8 mphOvercast
4:20 AM32.0 °F28.4 °F87 %30.15 in5.0 miEast (80°)8.1 mphOvercast
4:50 AM32.0 °F28.4 °F87 %30.15 in5.0 miEast (80°)5.8 mphOvercast
5:20 AM32.0 °F28.4 °F87 %30.15 in5.0 miEast (90°)6.9 mphOvercast
5:50 AM33.8 °F28.4 °F81 %30.15 in4.3 miEast (100°)8.1 mphOvercast
6:20 AM33.8 °F26.6 °F75 %30.15 in4.3 miESE (110°)5.8 mphOvercast
6:50 AM33.8 °F26.6 °F75 %30.18 in3.7 miESE (120°)4.6 mphOvercast
7:20 AM33.8 °F26.6 °F75 %30.18 in3.7 miESE (110°)6.9 mphOvercast
7:50 AM33.8 °F26.6 °F75 %30.18 in4.3 miESE (110°)8.1 mphMostly Cloudy
8:20 AM33.8 °F24.8 °F70 %30.21 in5.0 miESE (110°)11.5 mphMostly Cloudy
8:50 AM33.8 °F23.0 °F65 %30.21 in5.0 miEast (100°)13.8 mphMostly Cloudy
9:20 AM33.8 °F23.0 °F65 %30.21 in3.7 miEast (100°)15.0 mphOvercast
9:50 AM33.8 °F23.0 °F65 %30.21 in3.7 miESE (110°)11.5 mphScattered Clouds
10:20 AM35.6 °F24.8 °F65 %30.18 in3.7 miSE (130°)10.4 mphPartly Cloudy
10:50 AM35.6 °F24.8 °F65 %30.21 in4.3 miSE (140°)10.4 mph
11:20 AM35.6 °F24.8 °F65 %30.21 in5.0 miSSE (150°)9.2 mph
11:50 AM35.6 °F24.8 °F65 %30.21 in3.7 miSSE (160°)10.4 mphPartly Cloudy
12:20 PM35.6 °F26.6 °F70 %30.18 in3.7 miSE (140°)11.5 mphPartly Cloudy
12:50 PM35.6 °F26.6 °F70 %30.18 in3.7 miSE (140°)10.4 mphMostly Cloudy
1:20 PM35.6 °F24.8 °F65 %30.18 in3.7 miSSE (150°)10.4 mphMostly Cloudy
1:50 PM35.6 °F26.6 °F70 %30.18 in3.7 miSSE (150°)10.4 mphMostly Cloudy
2:20 PM35.6 °F26.6 °F70 %30.18 in3.7 miSSE (150°)9.2 mphMostly Cloudy
2:50 PM35.6 °F26.6 °F70 %30.18 in3.7 miSSE (160°)9.2 mphMostly Cloudy
3:20 PM35.6 °F26.6 °F70 %30.18 in4.3 miSSE (160°)8.1 mphMostly Cloudy
3:50 PM35.6 °F26.6 °F70 %30.15 in4.3 miSSE (160°)9.2 mphMostly Cloudy
4:20 PM33.8 °F26.6 °F75 %30.15 in4.3 miSSE (160°)9.2 mphMostly Cloudy
4:50 PM33.8 °F26.6 °F75 %30.15 in4.3 miSSE (160°)9.2 mphMostly Cloudy
5:20 PM33.8 °F28.4 °F81 %30.15 in1.4 miSSE (150°)8.1 mphRain-SnowLight Rain
5:50 PM33.8 °F28.4 °F81 %30.15 in3.1 miSSE (150°)6.9 mphRainLight Rain
6:20 PM33.8 °F30.2 °F87 %30.12 in4.3 miSE (140°)8.1 mphMostly Cloudy
6:50 PM33.8 °F30.2 °F87 %30.12 in4.3 miSSE (150°)8.1 mphMostly Cloudy
7:20 PM33.8 °F30.2 °F87 %30.12 in4.3 miSE (140°)8.1 mphMostly Cloudy
7:50 PM35.6 °F32.0 °F87 %30.09 in4.3 miSSE (150°)8.1 mphMostly Cloudy
8:20 PM35.6 °F32.0 °F87 %30.09 in4.3 miSSE (150°)8.1 mphMostly Cloudy
8:50 PM35.6 °F32.0 °F87 %30.09 in4.3 miSouth (170°)8.1 mphLight Drizzle
9:20 PM37.4 °F33.8 °F87 %30.06 in4.3 miSouth (170°)9.2 mphOvercast
9:50 PM37.4 °F33.8 °F87 %30.06 inSSE (160°)8.1 mphDrizzle
10:20 PM37.4 °F35.6 °F93 %30.06 in1.4 miSouth (170°)9.2 mphLight Drizzle
10:50 PM39.2 °F35.6 °F87 %30.04 in1.2 miSouth (180°)10.4 mphLight Drizzle
11:20 PM39.2 °F37.4 °F93 %30.04 in1.4 miSouth (180°)11.5 mphLight Drizzle
11:50 PM39.2 °F37.4 °F93 %30.01 in1.6 miSouth (190°)11.5 mphLight Drizzle
Hourly data recorded from EGKK, located miles away from County Oak, England







STORIES FROM OUR PARTNERS